Location: Beccas
(43.4309°N, 0.1528°E)
Time: 21:42:44
(UTC+00:00)

Okean 1-7 Rocket - Pass Details

Date: 15 October 2021
Orbit: 617 x 648 km, 82.5° (Epoch: 29 November)

Event Time Altitude Azimuth Distance (km) Brightness Sun altitude
Rises 19:32:12 0° 347° (NNW) 2,900 7.3 -25.4°
Reaches altitude 10° 19:34:27 10° 343° (NNW) 1,991 6.5 -25.8°
Maximum altitude 19:38:45 56° 266° (W) 743 4.1 -26.6°
Enters shadow 19:39:30 49° 227° (SW) 808 4.2 -26.7°
